User: anonymous   Login
Location: Unspecified
(0.0000°N, 0.0000°E)
Time: 10:32:32
(UTC+00:00)
Language:

MUOS - Orbit

View from above orbital plane
View from above orbital plane
View from above satellite
View from above satellite

Ground track
Ground track

The orbit data is extracted from the following two-line orbital elements,

1 38093U 12009A   20047.64592581 -.00000141  00000-0  00000+0 0  9994
2 38093   2.5489   3.3120 0058973   5.2779 269.9961  1.00270762 29260
Epoch (UTC): 16 February 2020 15:30:07
Eccentricity: 0.0058973
inclination: 2.5489°
perigee height: 35538 km
apogee height: 36035 km
right ascension of ascending node: 3.3120°
argument of perigee: 5.2779°
revolutions per day: 1.00270762
mean anomaly at epoch: 269.9961°
orbit number at epoch: 2926

The dashed part of the orbit path shows where the satellite is in the earth's shadow,  

DLR